Wind_Speed
53 54 51 48 47 44 38 40 42 42 48 41 39 51 64 69 68 67 63 60 58 59 61 62 63 63 64 66 68 70 68 69 70 71 67 62 62 61 61 58 55 51 48 46 38 36 40 42 42 40 38 36 34 36
59 59 54 51 49 46 40 39 37 37 46 43 33 38 50 59 67 67 63 63 64 65 65 61 61 57 61 64 66 68 67 73 74 72 73 70 64 64 61 62 58 56 51 42 44 37 39 42 42 41 38 36 35 37
52 57 58 56 53 52 47 42 41 40 36 41 35 35 41 47 51 53 55 57 61 63 60 59 55 54 59 63 64 65 68 72 74 74 71 70 69 66 65 62 61 59 53 48 44 40 42 43 42 41 39 37 37 38
49 52 53 52 49 47 46 41 36 41 39 40 39 39 41 42 45 47 49 50 51 55 55 52 49 49 57 58 58 60 66 75 81 78 75 70 69 67 64 61 64 60 59 52 48 44 44 46 45 43 44 38 37 39
46 49 50 49 45 43 42 39 35 41 41 43 39 42 43 41 42 44 47 48 49 49 49 45 41 44 48 48 49 52 58 68 80 84 79 74 72 69 65 61 59 58 56 53 49 47 44 48 47 47 44 44 42 41
41 46 50 50 47 43 39 43 42 43 41 43 43 43 44 43 43 47 47 48 48 48 43 38 38 40 42 42 45 48 57 71 77 81 83 79 74 72 69 64 59 58 57 54 51 49 46 47 46 45 43 43 43 40
41 43 47 49 44 43 41 39 40 43 46 44 44 44 43 43 43 44 42 41 41 41 35 34 36 38 38 41 45 49 59 73 78 79 81 82 79 73 69 62 58 58 57 56 53 50 45 44 41 42 43 43 42 41
45 45 46 49 47 44 43 36 35 38 44 44 41 42 42 41 41 41 40 40 40 37 32 33 35 36 36 39 46 51 61 73 81 79 80 82 80 76 72 64 62 60 59 58 55 51 47 47 49 47 45 42 38 41
50 50 51 50 48 42 39 39 38 39 42 42 40 40 39 39 38 35 36 39 39 34 31 31 35 33 34 39 46 52 62 72 80 81 80 82 79 75 69 70 64 61 60 58 57 56 54 55 55 51 50 45 38 41
54 56 56 54 49 43 38 36 35 37 38 37 37 37 36 35 34 33 33 35 36 30 28 31 32 31 33 37 43 52 60 70 79 81 82 82 81 76 74 71 67 65 61 60 60 59 58 54 56 58 54 50 45 44
50 48 48 51 51 49 44 39 36 35 34 34 34 33 35 35 34 33 35 36 30 27 28 31 28 28 29 34 40 50 56 67 74 80 84 82 83 82 78 74 71 68 65 62 61 60 59 59 56 56 57 56 54 52
41 43 46 49 51 53 51 46 43 41 37 32 32 33 34 34 34 34 36 31 25 27 29 28 24 24 25 29 36 45 53 58 70 78 80 85 85 84 84 79 76 73 70 69 67 65 63 61 60 59 59 60 59 58
38 39 39 45 52 52 53 54 50 45 41 35 34 34 32 31 31 33 31 26 26 27 28 22 20 21 23 28 35 40 46 53 58 68 77 81 82 87 86 84 83 79 76 75 73 71 70 68 67 65 64 63 63 65
34 36 39 43 49 55 54 53 55 50 48 43 40 38 35 34 34 35 29 26 28 27 24 18 17 20 20 26 30 36 39 42 50 55 62 73 79 80 82 88 89 84 83 82 79 77 76 74 73 72 71 70 70 70
32 38 41 45 48 52 56 56 55 57 55 50 46 42 41 41 37 32 30 29 29 26 20 15 16 19 20 20 27 31 35 38 40 45 50 55 62 73 80 80 81 87 91 89 85 83 82 81 81 80 80 80 79 79
31 38 44 47 50 53 56 58 56 54 58 57 51 46 44 41 36 32 32 32 26 23 17 14 16 18 20 20 22 24 27 29 32 38 40 43 48 54 62 72 81 84 84 84 86 88 89 90 90 90 88 87 88 87
28 35 42 47 51 54 56 57 57 55 54 56 53 50 46 39 35 34 30 24 21 17 16 16 17 19 22 22 23 25 28 31 31 32 34 38 41 44 48 53 59 67 73 78 81 82 81 80 80 82 84 86 88 89
28 33 39 43 47 53 55 55 56 57 53 51 48 41 33 28 26 24 22 17 15 16 18 17 17 18 20 24 26 26 26 27 27 28 29 29 30 32 34 38 43 48 52 55 59 62 65 68 71 73 74 75 76 77
25 28 30 33 37 45 50 51 53 53 50 47 42 38 31 23 20 18 16 15 16 18 15 14 15 17 20 22 24 24 25 24 22 21 21 22 23 23 24 24 25 28 32 35 38 40 41 43 45 47 48 50 51 52
22 24 26 28 32 38 40 43 46 45 43 40 38 34 29 26 20 18 17 16 16 14 13 14 16 18 19 20 20 19 19 19 19 18 17 16 16 15 15 15 14 14 15 16 18 20 21 23 25 27 29 31 33 35
24 24 25 27 31 34 36 38 37 38 34 35 33 28 23 22 22 20 16 14 13 14 14 17 20 21 21 23 24 24 22 21 20 19 18 17 16 14 13 13 12 11 10 9 9 10 11 13 15 17 19 22 24 27
25 27 28 29 31 32 34 35 35 35 32 30 27 26 26 24 18 17 17 15 17 17 22 23 25 26 26 26 25 24 23 23 22 21 20 19 20 19 17 15 13 12 11 9 7 7 8 10 11 13 15 16 17 19
28 28 28 30 32 32 33 34 34 33 32 30 31 29 24 21 21 19 20 22 24 26 28 29 29 29 28 27 27 27 26 25 24 25 23 22 21 20 19 16 14 12 9 6 4 4 5 8 10 13 14 15 16 18
32 34 34 36 38 39 38 38 37 36 35 32 30 28 25 23 24 26 26 27 29 28 28 28 28 28 29 29 28 27 26 27 26 25 25 23 20 18 15 13 11 9 6 4 2 5 8 12 15 17 18 20 22 23
36 36 37 39 38 38 39 38 38 37 36 33 31 30 32 31 28 27 28 30 31 32 33 33 32 31 30 28 28 27 26 26 27 25 22 19 15 14 12 11 9 6 2 3 7 11 15 16 18 20 21 21 22 23
45 46 45 44 43 43 41 40 38 38 39 39 37 34 32 33 35 36 36 36 36 35 33 33 32 32 31 29 27 25 25 25 24 21 18 17 15 12 9 5 3 1 4 8 12 15 17 20 20 18 17 17 17 19
50 48 48 47 47 46 45 44 42 41 41 40 40 39 38 38 38 39 38 37 35 33 32 31 31 29 27 27 26 26 24 21 20 19 17 14 10 8 5 2 3 6 9 13 16 20 23 22 19 17 17 18 17 19
59 57 55 53 51 50 49 47 46 45 44 43 42 41 40 38 37 34 33 31 29 27 27 26 25 26 28 27 24 22 20 18 16 14 11 8 6 5 4 7 9 12 15 17 19 22 24 22 21 20 19 20 22 24
52 51 49 47 45 43 41 40 38 37 36 35 35 33 32 30 29 28 27 27 27 27 27 28 28 26 23 20 17 15 13 12 11 9 8 8 8 9 11 13 16 19 20 23 24 26 26 27 27 26 25 25 27 29
45 44 43 42 41 38 36 33 32 30 30 30 29 29 29 29 30 29 28 27 26 25 24 22 20 18 15 12 11 10 9 9 10 10 10 11 12 14 16 19 21 23 25 26 27 28 29 31 32 32 32 32 33 34
37 36 35 34 34 33 33 32 30 28 26 25 25 24 24 24 24 24 24 24 22 20 19 19 19 18 17 15 14 13 13 13 13 13 14 16 18 20 22 23 25 27 29 30 31 33 34 35 37 37 38 39 40 41
27 26 25 24 23 22 22 23 22 21 20 19 19 20 21 20 19 20 20 20 19 18 16 15 17 16 17 16 16 16 17 17 17 19 20 22 23 25 25 27 29 31 33 34 35 37 39 41 41 42 43 45 47 49
17 17 18 17 17 17 17 16 15 15 15 13 13 12 12 13 14 15 15 15 15 16 16 16 16 17 17 18 19 20 20 21 21 22 25 27 28 29 31 33 36 37 38 39 41 43 44 46 47 48 50 52 52 53
Wind_Direction
248 254 256 252 257 262 254 243 248 253 258 257 243 235 231 231 234 236 240 241 244 244 249 255 259 253 248 244 241 237 235 233 231 230 229 230 232 231 233 234 235 240 242 243 246 253 246 244 243 240 240 237 235 235
246 250 253 256 259 261 263 254 245 259 258 262 246 236 233 231 235 238 242 243 244 248 253 254 251 245 244 241 239 237 235 232 230 230 229 229 231 228 231 232 235 237 240 243 244 252 247 240 237 237 237 233 238 240
246 248 252 253 260 256 260 260 247 242 245 256 252 235 232 231 232 235 240 242 245 248 248 252 246 248 246 244 240 238 236 233 230 227 226 226 227 228 228 230 232 234 238 240 246 245 241 238 236 234 233 238 245 244
247 248 252 256 258 255 253 246 240 232 240 247 249 238 230 229 230 232 236 240 244 246 247 247 251 248 251 250 245 240 232 228 226 224 222 223 225 227 228 228 231 234 238 240 243 242 236 238 238 240 240 246 251 250
249 253 254 254 250 251 253 242 236 235 236 238 242 238 230 228 230 232 239 242 244 245 248 253 250 257 257 250 242 233 224 218 220 221 218 219 223 226 226 227 231 233 233 237 241 241 236 236 240 242 240 249 251 245
245 245 248 250 247 250 254 241 235 231 236 232 237 239 233 230 231 236 241 244 246 250 254 249 257 263 257 247 237 228 216 210 213 217 215 214 218 222 223 223 225 227 228 232 237 241 240 236 240 244 249 249 249 246
244 240 241 245 246 247 252 244 248 236 232 236 235 238 236 231 231 237 242 244 244 249 251 254 265 266 256 245 232 222 212 207 207 215 213 214 216 218 221 222 226 227 227 231 234 238 239 236 240 242 246 252 249 246
242 240 238 241 243 241 240 237 232 230 232 234 235 236 237 232 233 237 239 243 248 251 254 263 272 269 253 240 228 220 213 209 207 214 214 213 216 220 220 221 223 224 227 231 232 233 235 233 234 235 240 251 251 247
240 238 237 237 240 240 231 225 226 225 230 234 232 232 234 232 233 235 239 245 250 252 260 273 279 266 248 236 224 219 215 212 211 212 215 214 215 218 220 224 224 225 226 228 230 230 231 232 233 233 240 249 247 243
238 236 235 235 237 236 230 226 224 227 231 233 233 232 231 228 229 234 240 247 252 257 270 281 276 261 246 235 225 219 216 215 214 214 215 217 215 217 220 224 223 223 226 228 230 232 234 236 237 238 241 245 246 243
242 239 234 232 231 231 228 224 223 229 231 230 230 229 228 224 228 233 243 250 253 267 280 284 271 260 246 236 226 219 218 217 217 217 217 219 219 219 221 224 226 226 227 230 232 233 236 236 237 238 242 244 246 247
240 236 230 227 226 226 225 222 222 224 226 226 228 227 224 225 231 236 243 247 260 275 285 282 269 264 250 235 226 219 219 220 220 221 221 221 222 223 223 224 226 228 230 232 234 235 237 239 240 241 242 243 244 247
233 229 224 222 222 224 222 221 222 225 226 225 226 227 227 228 231 237 243 253 268 279 283 272 268 260 248 232 224 218 220 220 221 223 224 226 226 226 227 227 227 229 231 234 236 238 240 243 244 245 246 247 247 248
219 220 217 215 215 219 221 221 220 222 227 225 226 227 229 231 235 241 249 261 270 281 277 263 261 251 242 231 226 224 222 222 222 224 226 227 229 231 230 231 231 233 233 235 238 240 243 244 247 248 250 252 254 253
207 204 206 207 211 212 215 218 219 219 226 227 227 228 231 234 239 247 256 265 277 274 259 254 246 237 235 230 221 219 219 221 223 226 228 230 231 232 234 236 235 235 236 237 239 241 244 247 249 251 253 255 256 258
204 201 200 200 201 207 210 214 218 219 222 228 230 230 234 238 245 254 261 268 265 255 246 250 233 222 219 218 220 218 216 216 220 226 229 230 232 232 233 235 236 238 240 241 242 244 246 248 249 251 253 255 256 258
196 194 199 201 199 200 205 208 213 216 219 225 231 235 236 242 250 255 255 250 243 246 248 242 223 211 211 210 211 213 213 217 223 226 227 229 230 231 233 235 236 238 240 241 243 246 248 250 252 253 255 255 257 259
192 193 198 202 201 200 203 205 207 213 218 221 227 234 239 245 243 238 236 232 235 243 246 227 216 211 208 205 206 210 211 215 220 222 225 226 226 228 231 233 235 237 240 243 246 248 250 252 254 257 258 259 260 261
184 187 192 196 198 199 202 204 203 209 215 219 224 229 232 233 230 231 227 231 233 236 230 223 220 212 209 207 204 207 209 212 215 218 219 221 222 226 229 230 232 232 234 238 241 245 248 250 253 256 258 261 262 264
168 172 177 179 184 192 198 199 201 205 209 212 217 220 222 220 219 222 220 222 222 216 217 210 202 188 183 183 182 179 175 176 179 180 184 187 191 193 197 201 205 207 213 219 225 231 238 245 252 258 262 264 266 267
154 158 163 168 174 178 183 187 189 196 195 199 203 201 199 202 205 205 203 203 208 203 185 183 170 162 157 152 152 153 154 157 154 151 150 152 153 152 153 155 160 166 174 188 203 219 233 246 256 265 269 270 270 269
147 150 153 157 160 164 168 173 179 184 181 178 177 183 190 192 191 188 186 188 174 164 167 153 146 144 145 146 146 146 146 142 138 135 139 142 138 135 135 138 144 148 152 159 176 203 227 244 257 266 274 278 280 280
133 136 142 145 148 151 155 158 161 163 163 167 173 176 172 169 172 173 169 153 151 148 143 143 144 143 142 143 142 139 137 137 140 140 139 139 136 135 137 139 141 141 143 159 182 228 259 274 279 281 284 286 289 289
124 128 132 135 137 140 142 146 149 154 157 155 150 150 156 157 153 145 142 146 146 144 144 141 141 141 139 138 136 138 141 143 142 141 142 140 140 140 139 138 137 140 151 163 241 294 298 297 295 294 293 292 292 292
115 120 123 125 128 129 131 133 134 135 135 139 142 140 137 136 138 146 147 143 140 140 140 138 137 136 134 137 142 145 146 147 147 148 144 140 139 140 140 139 140 142 162 282 299 307 314 313 308 304 300 300 299 300
106 108 110 113 116 119 122 125 127 128 128 129 130 131 133 138 139 138 137 137 135 131 131 131 133 137 141 145 148 151 151 150 143 142 143 143 143 145 145 146 147 264 315 323 326 328 329 328 322 317 315 315 309 308
100 103 106 108 110 113 115 117 120 121 122 123 126 129 131 132 132 130 128 128 129 132 136 140 143 146 149 150 148 147 145 147 146 145 146 146 150 159 171 205 281 307 317 326 332 336 335 334 327 322 320 318 316 320
94 95 98 99 102 105 107 109 111 115 118 120 123 125 126 127 128 129 132 134 136 139 141 144 146 146 143 143 145 143 145 148 147 149 157 171 189 219 264 299 302 308 312 321 327 331 332 334 331 326 324 322 325 325
89 90 91 93 96 99 103 106 110 115 120 122 124 126 129 132 135 136 137 139 140 140 140 141 142 143 147 146 143 145 153 161 166 181 209 232 249 276 291 297 298 306 312 316 320 327 330 333 332 330 328 327 326 326
90 90 91 91 93 95 97 100 105 109 114 118 122 127 132 134 136 138 140 141 141 141 141 142 144 145 146 148 151 157 172 195 211 234 253 270 278 280 284 293 298 300 305 310 316 318 321 321 323 324 322 321 321 321
87 88 88 89 90 91 93 96 97 99 101 104 111 117 122 131 139 142 145 146 146 150 157 161 164 168 174 182 193 208 222 232 244 261 267 273 282 289 294 296 297 299 304 308 311 314 316 317 316 317 319 320 321 321
83 84 85 85 87 91 96 99 103 107 110 115 126 134 141 147 155 160 163 167 171 179 181 186 195 198 205 212 224 238 250 258 265 272 279 284 289 295 300 302 302 301 301 304 307 310 312 314 314 314 316 318 318 318
77 80 80 78 81 88 93 107 113 112 110 118 128 136 149 163 174 182 188 194 197 201 208 214 221 228 236 243 248 256 262 268 271 277 282 287 291 294 297 298 299 301 302 303 305 307 309 310 311 312 314 315 315 315
Height
10480 10482 10489 10497 10502 10505 10510 10513 10517 10520 10519 10525 10529 10535 10543 10554 10561 10569 10577 10582 10588 10594 10598 10601 10603 10605 10610 10617 10623 10631 10641 10649 10656 10665 10675 10682 10691 10703 10709 10716 10720 10727 10733 10737 10743 10744 10748 10750 10754 10759 10761 10765 10770 10772
10467 10470 10475 10482 10488 10493 10498 10502 10506 10510 10509 10512 10518 10522 10529 10537 10545 10553 10559 10565 10571 10577 10581 10585 10587 10588 10591 10597 10603 10611 10624 10627 10637 10648 10657 10669 10677 10686 10697 10701 10709 10714 10721 10729 10731 10735 10739 10740 10744 10747 10753 10758 10760 10763
10453 10458 10463 10469 10474 10481 10486 10490 10494 10497 10500 10502 10507 10512 10518 10525 10532 10538 10544 10550 10555 10560 10565 10568 10570 10572 10572 10577 10585 10594 10601 10609 10618 10630 10642 10652 10663 10671 10679 10690 10697 10703 10710 10717 10719 10725 10727 10731 10735 10738 10744 10748 10751 10753
10441 10445 10449 10456 10461 10468 10474 10478 10482 10486 10490 10493 10497 10502 10507 10514 10520 10526 10530 10535 10541 10545 10549 10552 10553 10555 10554 10559 10565 10572 10579 10588 10598 10611 10625 10637 10648 10657 10668 10679 10682 10694 10697 10705 10708 10713 10716 10721 10725 10731 10735 10739 10742 10744
10427 10431 10436 10442 10449 10456 10461 10465 10471 10475 10480 10483 10487 10491 10496 10502 10508 10513 10518 10522 10526 10531 10533 10536 10537 10537 10537 10539 10543 10550 10558 10567 10578 10592 10608 10623 10634 10644 10655 10666 10673 10679 10687 10691 10696 10700 10705 10709 10714 10719 10725 10729 10731 10734
10414 10419 10424 10429 10435 10441 10447 10451 10458 10462 10467 10472 10476 10480 10484 10491 10497 10501 10506 10510 10514 10517 10520 10522 10522 10522 10522 10523 10526 10533 10542 10552 10562 10575 10592 10606 10618 10629 10640 10649 10660 10665 10672 10679 10684 10688 10693 10697 10704 10710 10714 10717 10720 10724
10400 10405 10410 10415 10422 10427 10433 10439 10445 10450 10456 10461 10466 10469 10474 10480 10485 10490 10495 10498 10502 10504 10507 10509 10510 10508 10508 10509 10513 10520 10529 10539 10552 10563 10579 10592 10603 10615 10628 10637 10648 10656 10661 10666 10672 10677 10683 10689 10696 10700 10703 10707 10710 10714
10387 10390 10396 10401 10407 10414 10421 10427 10433 10439 10445 10449 10455 10459 10464 10469 10474 10480 10484 10488 10491 10494 10496 10498 10497 10496 10494 10497 10503 10510 10519 10529 10541 10553 10564 10579 10592 10604 10615 10627 10633 10642 10648 10654 10660 10666 10672 10679 10683 10688 10692 10693 10697 10704
10369 10375 10381 10387 10394 10401 10409 10415 10421 10428 10433 10439 10444 10449 10454 10459 10465 10470 10474 10478 10481 10484 10487 10487 10484 10482 10481 10485 10491 10499 10509 10519 10531 10542 10553 10565 10581 10593 10606 10610 10624 10631 10636 10642 10647 10653 10660 10667 10671 10676 10679 10683 10690 10694
10349 10355 10363 10373 10382 10391 10399 10405 10412 10418 10423 10429 10434 10440 10445 10451 10457 10462 10465 10468 10471 10475 10477 10476 10472 10470 10472 10475 10482 10489 10498 10509 10519 10531 10542 10554 10567 10581 10588 10599 10610 10617 10623 10630 10635 10642 10648 10655 10660 10664 10667 10671 10676 10681
10330 10340 10351 10362 10371 10379 10387 10395 10402 10408 10413 10419 10425 10431 10437 10442 10448 10453 10457 10459 10463 10467 10468 10465 10462 10461 10463 10466 10472 10480 10488 10498 10508 10520 10530 10542 10554 10566 10575 10585 10595 10604 10610 10616 10622 10628 10633 10640 10646 10651 10656 10660 10663 10666
10314 10324 10335 10345 10355 10364 10374 10384 10391 10397 10404 10411 10417 10423 10428 10434 10439 10444 10447 10452 10456 10458 10458 10456 10455 10454 10456 10459 10463 10470 10478 10489 10499 10506 10518 10528 10540 10550 10561 10570 10580 10589 10596 10602 10607 10613 10618 10624 10629 10634 10639 10643 10647 10650
10300 10309 10320 10331 10341 10350 10361 10371 10380 10388 10395 10402 10408 10415 10420 10427 10432 10435 10440 10446 10449 10450 10450 10449 10449 10448 10449 10451 10455 10463 10470 10478 10488 10497 10506 10515 10526 10536 10546 10555 10564 10573 10581 10587 10593 10598 10604 10608 10613 10618 10622 10627 10631 10634
10288 10297 10306 10317 10327 10337 10347 10358 10369 10378 10385 10393 10400 10407 10414 10420 10423 10427 10434 10440 10442 10443 10443 10443 10443 10443 10443 10443 10450 10456 10463 10472 10478 10486 10495 10503 10512 10521 10529 10539 10548 10556 10565 10571 10577 10582 10587 10592 10597 10601 10606 10610 10613 10616
10278 10286 10294 10305 10316 10326 10337 10348 10358 10369 10376 10384 10392 10400 10406 10409 10415 10423 10429 10432 10435 10436 10436 10436 10438 10438 10439 10442 10444 10449 10456 10463 10472 10478 10483 10491 10499 10507 10515 10522 10531 10539 10547 10553 10559 10565 10570 10575 10580 10584 10588 10590 10594 10595
10270 10277 10285 10295 10306 10316 10327 10338 10348 10358 10366 10374 10384 10391 10396 10403 10410 10417 10422 10426 10428 10429 10429 10431 10433 10434 10435 10438 10442 10447 10453 10459 10465 10468 10476 10482 10487 10493 10499 10506 10513 10521 10528 10535 10542 10547 10553 10558 10561 10565 10568 10571 10572 10574
10265 10273 10279 10287 10297 10308 10318 10329 10339 10350 10361 10367 10374 10382 10391 10399 10407 10412 10416 10419 10421 10422 10422 10426 10426 10428 10431 10434 10438 10442 10447 10452 10458 10463 10467 10470 10476 10481 10487 10492 10498 10504 10511 10517 10524 10530 10535 10539 10543 10546 10548 10551 10553 10555
10260 10267 10274 10281 10290 10301 10311 10322 10334 10344 10351 10360 10369 10377 10387 10395 10402 10406 10411 10412 10415 10416 10417 10420 10422 10425 10429 10431 10433 10439 10443 10448 10452 10456 10460 10464 10470 10475 10479 10482 10487 10492 10498 10504 10510 10515 10519 10523 10525 10527 10528 10530 10531 10533
10258 10265 10272 10280 10289 10298 10307 10318 10329 10337 10347 10357 10367 10376 10384 10392 10397 10401 10404 10407 10409 10412 10414 10416 10418 10420 10422 10426 10431 10435 10439 10444 10448 10452 10456 10461 10465 10469 10473 10477 10481 10485 10489 10493 10498 10502 10506 10509 10510 10511 10512 10512 10513 10513
10260 10265 10272 10279 10288 10297 10306 10316 10326 10336 10346 10356 10365 10374 10382 10388 10393 10396 10400 10403 10406 10409 10410 10411 10413 10416 10420 10424 10429 10434 10438 10442 10446 10450 10454 10458 10462 10466 10469 10473 10477 10481 10484 10488 10491 10494 10496 10498 10499 10500 10500 10500 10500 10500
10263 10268 10274 10281 10289 10297 10307 10317 10326 10336 10346 10355 10363 10372 10380 10384 10388 10393 10397 10401 10404 10406 10407 10410 10413 10417 10422 10426 10430 10434 10438 10443 10447 10451 10455 10459 10463 10466 10470 10473 10476 10479 10482 10485 10488 10490 10492 10493 10493 10493 10493 10492 10491 10490
10267 10272 10278 10284 10292 10300 10310 10319 10328 10337 10346 10356 10365 10372 10377 10382 10388 10393 10396 10399 10402 10405 10409 10412 10416 10421 10425 10429 10433 10437 10442 10446 10450 10454 10458 10462 10465 10468 10471 10475 10478 10481 10484 10486 10487 10488 10489 10490 10490 10489 10488 10488 10486 10484
10274 10279 10285 10291 10299 10307 10315 10323 10332 10340 10349 10358 10365 10371 10378 10383 10388 10392 10396 10399 10404 10409 10412 10416 10420 10425 10428 10433 10437 10441 10445 10450 10454 10458 10462 10466 10468 10472 10475 10477 10480 10482 10484 10485 10486 10487 10488 10487 10487 10485 10484 10483 10481 10479
10285 10289 10294 10300 10307 10314 10322 10330 10338 10346 10353 10361 10368 10374 10380 10385 10390 10394 10399 10405 10409 10412 10417 10421 10425 10429 10434 10438 10442 10446 10451 10455 10459 10463 10466 10469 10472 10475 10478 10479 10481 10483 10485 10486 10486 10486 10485 10485 10483 10481 10479 10477 10474 10472
10299 10303 10307 10312 10319 10325 10332 10339 10346 10353 10360 10367 10373 10379 10384 10390 10395 10400 10405 10409 10413 10417 10422 10426 10430 10435 10439 10444 10449 10453 10456 10460 10463 10467 10470 10474 10476 10478 10480 10482 10484 10485 10485 10485 10485 10484 10482 10480 10478 10475 10472 10469 10466 10463
10316 10319 10324 10329 10334 10339 10346 10351 10357 10363 10369 10375 10381 10386 10391 10397 10402 10407 10412 10416 10420 10424 10429 10433 10437 10442 10446 10450 10454 10457 10461 10465 10468 10471 10474 10476 10479 10481 10482 10483 10484 10484 10484 10484 10482 10480 10478 10475 10471 10469 10466 10464 10461 10459
10335 10339 10343 10347 10351 10356 10360 10365 10371 10376 10381 10386 10391 10397 10402 10407 10412 10416 10420 10424 10428 10432 10436 10440 10444 10448 10451 10455 10459 10462 10466 10469 10471 10474 10476 10478 10479 10481 10482 10482 10483 10482 10482 10480 10478 10476 10473 10470 10467 10465 10462 10459 10455 10452
10357 10360 10364 10367 10370 10374 10378 10382 10386 10391 10396 10401 10405 10410 10414 10418 10422 10426 10429 10433 10437 10440 10443 10447 10451 10454 10458 10462 10465 10467 10470 10473 10474 10476 10478 10479 10480 10481 10481 10481 10480 10479 10478 10476 10474 10472 10469 10466 10463 10460 10457 10453 10449 10445
10379 10381 10384 10386 10389 10393 10396 10400 10403 10407 10411 10414 10418 10421 10425 10428 10431 10435 10438 10441 10444 10447 10450 10454 10457 10460 10463 10466 10469 10471 10473 10475 10476 10477 10478 10478 10478 10479 10478 10478 10476 10475 10473 10471 10469 10466 10463 10459 10456 10453 10449 10446 10442 10438
10398 10400 10402 10404 10406 10409 10411 10414 10417 10419 10422 10425 10427 10430 10433 10436 10439 10442 10445 10448 10451 10454 10457 10460 10462 10465 10467 10469 10471 10472 10473 10474 10475 10475 10475 10475 10475 10474 10473 10472 10471 10469 10467 10465 10462 10459 10456 10453 10449 10445 10442 10438 10434 10429
10414 10415 10417 10419 10421 10422 10424 10426 10428 10430 10432 10434 10437 10439 10442 10444 10446 10448 10451 10453 10456 10458 10460 10462 10464 10466 10468 10469 10470 10472 10472 10472 10472 10472 10472 10471 10470 10469 10468 10466 10464 10462 10459 10457 10454 10451 10447 10444 10441 10437 10433 10428 10423 10418
10426 10428 10429 10430 10431 10432 10434 10435 10437 10438 10440 10442 10443 10445 10447 10449 10451 10453 10455 10457 10458 10460 10462 10464 10465 10466 10467 10468 10468 10468 10468 10468 10468 10468 10467 10466 10465 10463 10461 10459 10456 10453 10451 10448 10445 10441 10438 10434 10430 10425 10420 10415 10410 10405
10434 10435 10435 10437 10437 10439 10440 10442 10443 10444 10446 10447 10448 10450 10451 10453 10454 10456 10457 10459 10460 10461 10461 10462 10463 10464 10465 10465 10465 10464 10464 10463 10462 10461 10460 10459 10457 10455 10453 10450 10447 10444 10440 10437 10434 10430 10426 10422 10417 10412 10407 10403 10397 10391